SCOUT A DEB, 2386

Orbit data source: Space-Track

SCOUT A DEB, 2386 is space debris in LEO originally from a launch on Sat, 26 Mar 1966 UTC launched from the Air Force Western Test Range (AFWTR). Debris objects in space refer to the collection of defunct objects orbiting the Earth. Examples of debris include non-operational satellites, rocket bodies, and fragments generated from explosions, collisions, or faulty payload assembly.

Loading next visibility...
Identifier
2386, 1966-024D
Orbit
LEO
Country
Flag of USUS
Related business
Manufacturer
Unknown
Mission
Spacecraft
Bus & Motor
Unknown
Mass
Unknown
Launch date (UTC)
1966-03-26 (59 years ago)
Launch vehicle
Unknown
Launch site
Air Force Western Test Range (AFWTR)
Object type
Payload
Rocket body
Debris
Shape & HBR
Unknown
Radar Cross Section
Small (<0.1 m²)

Expand to show TLE details & history
Last TLE update: 6 days ago

TLE from 6 days ago
0 SCOUT A DEB
1 02386U 66024D   25237.72658792  .00000314  00000-0  26773-3 0  9998
2 02386  90.0552 329.9219 0129481 157.2964 203.4004 13.81410431281152
Epoch: 2025-08-25T17:26Z
TLE epoch observation values (Epoch: 2025-08-25T17:26:17.196Z)
Latitude
-0.00003°
Longitude
94.12174°
Altitude
1,049.284 km
Speed
7.283 km/s
True Right ascension
21h 59m 41s
True Declination
0° 00' 00"
Sunlit
Object was in full shadow at epoch
Visualization orbit readout
Latitude
Unknown
Longitude
Unknown
Altitude
Unknown
Speed
Unknown
Apparent Right ascension
Unknown
Apparent Declination
Unknown
Sunlit
N/A
Visualization observer readout
Local Sidereal Time
00:49:22
Azimuth
Unknown
Elevation
Unknown
Doppler factor
Unknown
Orbital elements
Apogee altitude
1,050.853 km
Perigee altitude
860.93 km
Semi-major axis
7,334.029 km
Eccentricity
0.01295
Inclination
90.0552°
RAAN
329.9219°
Arg. of periapsis
157.2964°
True anomaly
202.81976°
Mean anomaly
203.4004°
Eccentric anomaly
203.10923°
Mean motion
3.45565 °/min
Orbital period
104.18 mins
BSTAR
0.00026773
Loading maneuver chart data...
Computing Atmospheric mass density...
Loading historical data...
Loading historical data...
Loading historical data...
Loading historical data...
Loading historical data...
Loading historical data...
Loading historical data...

Documentation

Showing up to 5 results
|